TimeCDT,TemperatureF,Dew PointF,Humidity,Sea Level PressureIn,VisibilityMPH,Wind Direction,Wind SpeedMPH,Gust SpeedMPH,PrecipitationIn,Events,Conditions,WindDirDegrees,DateUTC
12:15 AM,37.8,36.1,94,30.01,10.0,WSW,4.6,-,N/A,,Clear,240,2013-05-12 05:15:00
12:35 AM,37.8,36.1,94,30.01,10.0,West,4.6,-,N/A,,Clear,270,2013-05-12 05:35:00
12:55 AM,37.8,35.2,91,30.02,10.0,West,4.6,-,N/A,,Clear,260,2013-05-12 05:55:00
1:15 AM,37.2,35.2,93,30.02,10.0,West,5.8,-,N/A,,Clear,260,2013-05-12 06:15:00
1:35 AM,37.0,34.9,92,30.02,10.0,West,5.8,-,N/A,,Clear,260,2013-05-12 06:35:00
1:55 AM,37.2,34.2,89,30.02,10.0,West,5.8,-,N/A,,Clear,270,2013-05-12 06:55:00
2:15 AM,37.9,33.4,84,30.01,10.0,West,6.9,-,N/A,,Clear,270,2013-05-12 07:15:00
2:35 AM,38.5,32.4,79,30.01,10.0,West,5.8,-,N/A,,Clear,280,2013-05-12 07:35:00
2:55 AM,37.9,32.2,80,30.01,10.0,West,5.8,-,N/A,,Clear,270,2013-05-12 07:55:00
3:15 AM,37.0,32.4,83,30.01,10.0,West,6.9,-,N/A,,Clear,260,2013-05-12 08:15:00
3:35 AM,37.2,32.2,82,30.01,10.0,West,5.8,-,N/A,,Clear,270,2013-05-12 08:35:00
3:55 AM,37.0,32.0,82,30.01,10.0,West,6.9,-,N/A,,Clear,270,2013-05-12 08:55:00
4:15 AM,37.0,32.0,82,30.02,10.0,West,6.9,-,N/A,,Clear,280,2013-05-12 09:15:00
4:35 AM,37.0,31.8,81,30.02,10.0,West,6.9,-,N/A,,Clear,270,2013-05-12 09:35:00
4:55 AM,36.7,31.6,82,30.02,10.0,West,5.8,-,N/A,,Clear,270,2013-05-12 09:55:00
5:15 AM,36.1,31.8,84,30.02,10.0,West,5.8,-,N/A,,Clear,270,2013-05-12 10:15:00
5:35 AM,35.6,31.8,86,30.03,10.0,West,6.9,-,N/A,,Clear,270,2013-05-12 10:35:00
5:55 AM,35.6,32.0,87,30.03,10.0,West,8.1,-,N/A,,Clear,270,2013-05-12 10:55:00
6:15 AM,36.3,32.0,84,30.04,10.0,West,9.2,-,N/A,,Clear,280,2013-05-12 11:15:00
6:35 AM,36.7,32.0,83,30.04,10.0,West,9.2,-,N/A,,Clear,280,2013-05-12 11:35:00
6:55 AM,37.6,32.2,81,30.04,10.0,WNW,8.1,-,N/A,,Clear,290,2013-05-12 11:55:00
7:15 AM,39.4,32.4,76,30.05,10.0,NW,11.5,-,N/A,,Clear,320,2013-05-12 12:15:00
7:35 AM,41.4,31.8,69,30.05,10.0,NNW,16.1,19.6,N/A,,Clear,330,2013-05-12 12:35:00
7:55 AM,42.3,30.6,63,30.06,10.0,NNW,13.8,20.7,N/A,,Clear,330,2013-05-12 12:55:00
8:15 AM,43.0,30.9,62,30.07,10.0,NNW,17.3,-,N/A,,Clear,330,2013-05-12 13:15:00
8:35 AM,43.0,30.9,62,30.07,10.0,NNW,16.1,24.2,N/A,,Clear,330,2013-05-12 13:35:00
8:55 AM,43.2,30.9,62,30.08,10.0,NNW,16.1,23.0,N/A,,Scattered Clouds,330,2013-05-12 13:55:00
9:15 AM,43.9,31.8,63,30.08,10.0,NNW,17.3,24.2,N/A,,Scattered Clouds,330,2013-05-12 14:15:00
9:35 AM,44.8,32.0,61,30.08,10.0,NNW,17.3,-,N/A,,Scattered Clouds,340,2013-05-12 14:35:00
9:55 AM,45.0,31.5,59,30.08,10.0,NNW,15.0,20.7,N/A,,Scattered Clouds,330,2013-05-12 14:55:00
10:15 AM,45.0,30.9,58,30.09,10.0,NW,15.0,24.2,N/A,,Scattered Clouds,320,2013-05-12 15:15:00
10:35 AM,45.1,30.0,55,30.09,10.0,NNW,17.3,21.9,N/A,,Scattered Clouds,340,2013-05-12 15:35:00
10:55 AM,45.7,29.3,53,30.10,10.0,WNW,15.0,-,N/A,,Mostly Cloudy,300,2013-05-12 15:55:00
11:15 AM,45.1,29.7,55,30.10,10.0,NNW,12.7,25.3,N/A,,Mostly Cloudy,340,2013-05-12 16:15:00
11:35 AM,46.0,29.3,52,30.11,10.0,NNW,15.0,24.2,N/A,,Scattered Clouds,330,2013-05-12 16:35:00
11:55 AM,46.6,28.2,49,30.11,10.0,NNW,16.1,23.0,N/A,,Scattered Clouds,330,2013-05-12 16:55:00
12:15 PM,47.1,28.0,48,30.11,10.0,NW,15.0,21.9,N/A,,Scattered Clouds,310,2013-05-12 17:15:00
12:35 PM,47.8,28.0,46,30.10,10.0,NW,12.7,20.7,N/A,,Scattered Clouds,310,2013-05-12 17:35:00
12:55 PM,48.2,28.2,46,30.11,10.0,NNW,13.8,21.9,N/A,,Mostly Cloudy,330,2013-05-12 17:55:00
1:15 PM,48.9,28.0,44,30.11,10.0,WNW,11.5,20.7,N/A,,Scattered Clouds,300,2013-05-12 18:15:00
1:35 PM,48.7,26.6,42,30.11,10.0,WNW,8.1,-,N/A,,Scattered Clouds,290,2013-05-12 18:35:00
1:55 PM,50.2,27.3,41,30.10,10.0,NW,10.4,20.7,N/A,,Scattered Clouds,310,2013-05-12 18:55:00
2:15 PM,50.5,27.7,41,30.10,10.0,NNW,13.8,21.9,N/A,,Mostly Cloudy,340,2013-05-12 19:15:00
2:35 PM,50.5,27.5,41,30.10,10.0,NNW,11.5,21.9,N/A,,Mostly Cloudy,330,2013-05-12 19:35:00
2:55 PM,50.9,27.1,40,30.09,10.0,WNW,10.4,19.6,N/A,,Mostly Cloudy,300,2013-05-12 19:55:00
3:15 PM,51.6,27.0,38,30.09,10.0,WNW,16.1,19.6,N/A,,Scattered Clouds,290,2013-05-12 20:15:00
3:35 PM,52.2,26.2,37,30.08,10.0,WNW,10.4,-,N/A,,Scattered Clouds,300,2013-05-12 20:35:00
3:55 PM,52.0,26.1,37,30.08,10.0,NW,13.8,20.7,N/A,,Scattered Clouds,310,2013-05-12 20:55:00
4:15 PM,51.8,26.8,38,30.08,10.0,NW,11.5,19.6,N/A,,Scattered Clouds,320,2013-05-12 21:15:00
4:35 PM,51.8,27.1,39,30.07,10.0,NNW,15.0,-,N/A,,Mostly Cloudy,330,2013-05-12 21:35:00
4:55 PM,52.9,25.9,35,30.08,10.0,NW,16.1,-,N/A,,Scattered Clouds,310,2013-05-12 21:55:00
5:15 PM,52.2,25.0,35,30.08,10.0,WNW,11.5,19.6,N/A,,Scattered Clouds,300,2013-05-12 22:15:00
5:35 PM,52.3,25.3,35,30.08,10.0,NNW,15.0,19.6,N/A,,Mostly Cloudy,330,2013-05-12 22:35:00
5:55 PM,52.3,25.5,35,30.08,10.0,NW,6.9,-,N/A,,Scattered Clouds,320,2013-05-12 22:55:00
6:15 PM,51.6,25.7,37,30.08,10.0,NNW,15.0,-,N/A,,Scattered Clouds,340,2013-05-12 23:15:00
6:35 PM,50.9,26.1,38,30.08,10.0,NNW,11.5,-,N/A,,Clear,340,2013-05-12 23:35:00
6:55 PM,50.2,25.9,39,30.08,10.0,NNW,9.2,16.1,N/A,,Clear,340,2013-05-12 23:55:00
7:15 PM,48.9,26.4,42,30.08,10.0,North,10.4,-,N/A,,Clear,360,2013-05-13 00:15:00
7:35 PM,47.7,26.1,43,30.08,10.0,North,9.2,-,N/A,,Clear,350,2013-05-13 00:35:00
7:55 PM,45.9,26.6,47,30.08,10.0,North,8.1,-,N/A,,Clear,360,2013-05-13 00:55:00
8:15 PM,43.5,27.5,53,30.08,10.0,North,6.9,-,N/A,,Clear,10,2013-05-13 01:15:00
8:35 PM,42.1,27.7,57,30.09,10.0,NNE,5.8,-,N/A,,Clear,20,2013-05-13 01:35:00
8:55 PM,41.7,27.3,57,30.10,10.0,NNE,4.6,-,N/A,,Clear,30,2013-05-13 01:55:00
9:15 PM,41.7,27.1,56,30.11,10.0,NE,3.5,-,N/A,,Scattered Clouds,50,2013-05-13 02:15:00
9:35 PM,42.6,26.6,53,30.11,10.0,ENE,3.5,-,N/A,,Mostly Cloudy,60,2013-05-13 02:35:00
9:55 PM,42.1,28.0,58,30.12,10.0,ENE,3.5,-,N/A,,Overcast,70,2013-05-13 02:55:00
10:15 PM,41.5,30.0,64,30.11,10.0,Calm,Calm,-,N/A,,Overcast,0,2013-05-13 03:15:00
10:35 PM,40.6,31.6,70,30.12,10.0,Calm,Calm,-,N/A,,Mostly Cloudy,0,2013-05-13 03:35:00
10:55 PM,40.5,31.8,71,30.12,10.0,Calm,Calm,-,N/A,,Scattered Clouds,0,2013-05-13 03:55:00
11:15 PM,40.6,31.8,71,30.11,10.0,Calm,Calm,-,N/A,,Mostly Cloudy,0,2013-05-13 04:15:00
11:35 PM,39.9,33.8,79,30.11,10.0,Calm,Calm,-,N/A,,Mostly Cloudy,0,2013-05-13 04:35:00
11:55 PM,39.4,35.1,84,30.11,10.0,Calm,Calm,-,N/A,,Overcast,0,2013-05-13 04:55:00